"Pseudo-MPEC" for C02CJ32

Created 2019 Jan 14 12:18:07 UT using Find_Orb

Click here for an explanation of pseudo-MPECs

 
 Astrometry: 
     C02CJ32  C2019 01 111w=?8RAstrometryLY2wlxp(vq.%uo#FZjiu*9Gs$D6C7hppGR=DF51
     C02CJ32  C2019 01 12.23232 05 05 33.59 -08 19 06.3    ~1C7I 20.4 GVNEOCPG96
     C02CJ32  C2019 01 12.23796 05 05 33.44 -08 19 22.2    ~1C7I 20.6 GVNEOCPG96
     C02CJ32  C2019 01 12.24361 05 05 33.31 -08 19 38.4    ~1C7I 20.5 GVNEOCPG96
     C02CJ32  C2019 01 12.24924 05 05 33.18 -08 19 54.8    ~1C7I 20.5 GVNEOCPG96
     C02CJ32  C2019 01 12.36275 05 05 30.55 -08 25 24.4    ~1C9I 20.1 GVNEOCPI52
     C02CJ32  C2019 01 12.36441 05 05 30.53 -08 25 28.5    ~1C9I 20.1 GVNEOCPI52
     C02CJ32 KC2019 01 12$G(8redacted;8q3vd4oiX_2oM\?'][ZTcC3K3oO[wAMH.I3B?VU474
     C02CJ32 KC2019 01 12g%!q_:Lj'usr;iu#m.Ff!D`%PsIr6)MaBlUI6\D/S=$Bl(5(!r)F474
     C02CJ32 KC2019 01 12BoP]kv8:2N_u'VT$H6mIN!o`=yl)VhR,clickKD(=^nlwiM-CQ/3474
     C02CJ32 KC2019 01 12qJpl-[`2`*n$BJt,w'))7=(VHPp/Gp3q@xwd8d3-Ofhere'5=bsS474
     C02CJ32 KC2019 01 14!YPhQl/)jim(TZx;0By5^r68bUQ(0dXy;JbxnQFP+(jFBj6[bLM%474
     C02CJ32 KC2019 01 14`iCUm_T7Fv)wq)s;?T#k'\60p1A;qd8'Xx[Ni[Ne;Wbfafor6'D_474
     C02CJ32 KC2019 01 14sX-EByLTQ-(@BW`7h$O8+0]D(cfjyX=W?brhTJO7DqH*c6-gfELP474
     C02CJ32 KC2019 01 14EIsVB6V:$ed./YJmB`explanation/\V\-h\xD[Gr7C.n]fYt[eT474

Station data:
(474) Mount John Observatory, Lake Tekapo  (S43.987388 E170.464960)  New
   Zealand.  Observers A. C. Gilmore, P. M. Kilmartin. Measurer P. M.
   Kilmartin. 1.0-m f/7.7 reflector + CCD.
(F51) Pan-STARRS 1, Haleakala  (N20.707235 W156.255910)  US/Hawaii.
   Observers N. Primak, A. Schultz, S. Watters, J. Thiel, T. Goggia. Measurer
   PS1 Science Consortium. 1.8-m Ritchey-Chrétien + CCD.
(G96) Mt. Lemmon Survey  (N32.442754 W110.788720)  US/Arizona.  Observers B.
   M. Africano, E. J. Christensen, G. A. Farneth, D. C. Fuls, A. R. Gibbs, A.
   D. Grauer, H. Groeller, J. A. Johnson, R. A. Kowalski, S. M. Larson, G. J.
   Leonard, R. L. Seaman, F. C. Shelly. 1.5-m reflector + 10K CCD.
(I52) Steward Observatory, Mt. Lemmon Station  (N32.442547 W110.788920)
   US/Arizona.  Observers B. M. Africano, E. J. Christensen, G. A. Farneth,
   D. C. Fuls, A. R. Gibbs, A. D. Grauer, H. Groeller, J. A. Johnson, R. A.
   Kowalski, S. M. Larson, G. J. Leonard, R. L. Seaman, F. C. Shelly. 1.0-m
   reflector + CCD.

Orbital elements:  C02CJ32
   Perihelion 2019 Feb 6.726079 +/- 0.391 TT = 17:25:33 (JD 2458521.226079)
Epoch 2019 Jan 14.0 TT = JDT 2458497.5   Earth MOID: 0.4257   Ma: 0.0634
M 354.96960984 +/- 0.21             (J2000 ecliptic)          AutoNEOCP
n   0.21201944 +/- 0.00582          Peri.  221.41651 +/- 0.40
a   2.78538724 +/- 0.051            Node   261.77512 +/- 0.032
e   0.5217371 +/- 0.00719           Incl.   29.92561 +/- 0.27
P   4.65                   H 20.2   G  0.15   U  9.3  
q 1.33214714 +/- 0.0044    Q 4.23862734 +/- 0.0957
From 15 observations 2019 Jan. 11-14; mean residual 0".21
Residuals in arcseconds: 
190111 F51  .10+  .01-    190112 I52  .37-  .11-    190112 474  .14+  .13-    
190112 G96  .09+  .58-    190112 I52  .14-  .59+    190114 474  .14-  .02-    
190112 G96  .10-  .05-    190112 474  .00   .09-    190114 474  .36+  .01+    
190112 G96  .00   .20+    190112 474  .25+  .03-    190114 474  .03-  .06-    
190112 G96  .09+  .19+    190112 474  .04+  .18-    190114 474  .13-  .07+    

Ephemerides (geocentric):
Date (UTC) HH   RA              Dec         delta   r     elong  mag " sig PA
---- -- -- --  -------------   -----------  ------ ------ -----  --- ---- ---
2019 01 14 12  05 05 01.786   -10 05 13.47  .49335 1.3553 130.2 20.8 .130 140
2019 01 14 13  05 05 01.360   -10 07 06.37  .49354 1.3552 130.1 20.8 .138 138
2019 01 14 14  05 05 00.940   -10 08 59.12  .49374 1.3551 130.1 20.8 .147 136
2019 01 14 15  05 05 00.525   -10 10 51.72  .49393 1.3550 130.0 20.8 .156 133
2019 01 14 16  05 05 00.117   -10 12 44.16  .49413 1.3550 130.0 20.8 .165 131
2019 01 14 17  05 04 59.714   -10 14 36.45  .49432 1.3549 129.9 20.8 .175 130
2019 01 14 18  05 04 59.317   -10 16 28.58  .49451 1.3548 129.9 20.8 .185 128
2019 01 14 19  05 04 58.925   -10 18 20.56  .49471 1.3547 129.8 20.8 .196 126
2019 01 14 20  05 04 58.540   -10 20 12.38  .49491 1.3546 129.8 20.8 .207 125
2019 01 14 21  05 04 58.160   -10 22 04.05  .49510 1.3546 129.7 20.8 .218 123
2019 01 14 22  05 04 57.786   -10 23 55.57  .49530 1.3545 129.7 20.8 .230 122
2019 01 14 23  05 04 57.418   -10 25 46.93  .49549 1.3544 129.6 20.8 .242 121
2019 01 15 00  05 04 57.056   -10 27 38.14  .49569 1.3543 129.6 20.8 .254 120
2019 01 15 01  05 04 56.700   -10 29 29.19  .49589 1.3542 129.5 20.8 .267 119
2019 01 15 02  05 04 56.349   -10 31 20.09  .49608 1.3542 129.5 20.8 .281 118
2019 01 15 03  05 04 56.004   -10 33 10.83  .49628 1.3541 129.4 20.8 .294 117
2019 01 15 04  05 04 55.665   -10 35 01.43  .49648 1.3540 129.4 20.8 .308 116
2019 01 15 05  05 04 55.332   -10 36 51.86  .49667 1.3539 129.3 20.8 .322 115
2019 01 15 06  05 04 55.004   -10 38 42.15  .49687 1.3538 129.3 20.8 .337 114
2019 01 15 07  05 04 54.682   -10 40 32.28  .49707 1.3538 129.2 20.8 .352 113
2019 01 15 08  05 04 54.366   -10 42 22.25  .49727 1.3537 129.2 20.8 .367 113
2019 01 15 09  05 04 54.056   -10 44 12.08  .49747 1.3536 129.1 20.8 .383 112
2019 01 15 10  05 04 53.752   -10 46 01.75  .49766 1.3535 129.1 20.8 .399 111
2019 01 15 11  05 04 53.453   -10 47 51.26  .49786 1.3534 129.0 20.8 .415 111
2019 01 15 12  05 04 53.161   -10 49 40.63  .49806 1.3534 129.0 20.8 .432 110
2019 01 15 13  05 04 52.874   -10 51 29.83  .49826 1.3533 128.9 20.8 .448 110
2019 01 15 14  05 04 52.592   -10 53 18.89  .49846 1.3532 128.9 20.8 .466 109
2019 01 15 15  05 04 52.317   -10 55 07.79  .49866 1.3531 128.8 20.8 .483 108
2019 01 15 16  05 04 52.047   -10 56 56.54  .49886 1.3530 128.8 20.8 .501 108
2019 01 15 17  05 04 51.784   -10 58 45.14  .49906 1.3530 128.7 20.8 .520 107
2019 01 15 18  05 04 51.526   -11 00 33.59  .49926 1.3529 128.7 20.8 .538 107
2019 01 15 19  05 04 51.273   -11 02 21.88  .49946 1.3528 128.6 20.8 .557 107
2019 01 15 20  05 04 51.027   -11 04 10.02  .49966 1.3527 128.6 20.8 .576 106
2019 01 15 21  05 04 50.786   -11 05 58.00  .49987 1.3527 128.5 20.8 .596 106
2019 01 15 22  05 04 50.551   -11 07 45.84  .50007 1.3526 128.5 20.8 .616 105
2019 01 15 23  05 04 50.322   -11 09 33.52  .50027 1.3525 128.4 20.8 .636 105
2019 01 16 00  05 04 50.099   -11 11 21.05  .50047 1.3524 128.4 20.8 .657 105
2019 01 16 01  05 04 49.881   -11 13 08.43  .50067 1.3524 128.3 20.8 .677 104
2019 01 16 02  05 04 49.670   -11 14 55.65  .50088 1.3523 128.3 20.8 .699 104
2019 01 16 03  05 04 49.464   -11 16 42.72  .50108 1.3522 128.2 20.8 .720 104
2019 01 16 04  05 04 49.263   -11 18 29.65  .50128 1.3521 128.2 20.8 .742 103
2019 01 16 05  05 04 49.069   -11 20 16.41  .50148 1.3520 128.1 20.8 .764 103
2019 01 16 06  05 04 48.880   -11 22 03.03  .50169 1.3520 128.1 20.8 .787 103
2019 01 16 07  05 04 48.697   -11 23 49.50  .50189 1.3519 128.0 20.8 .809 102
2019 01 16 08  05 04 48.520   -11 25 35.81  .50210 1.3518 128.0 20.8 .833 102
2019 01 16 09  05 04 48.349   -11 27 21.97  .50230 1.3517 127.9 20.8 .856 102
2019 01 16 10  05 04 48.183   -11 29 07.98  .50250 1.3517 127.9 20.8 .880 102
2019 01 16 11  05 04 48.023   -11 30 53.84  .50271 1.3516 127.8 20.8 .904 101